Homer, AK

9:20 PM AKDT on October 15, 2019 (GMT -0800)
Homer

Weather History for PAHO - August, 2019

Change the Weather History Date:

Wednesday, August 21, 2019

  Actual Average Record
Temperature  
Mean Temperature 52 °F -  
Max Temperature 61 °F 59 °F 73 °F (1936)
Min Temperature 43 °F 45 °F 34 °F (1969)
Degree Days  
Heating Degree Days 14    
Growing Degree Days 2 (Base 50)    
Moisture  
Dew Point 45 °F    
Average Humidity 83    
Maximum Humidity 97    
Minimum Humidity 60    
Precipitation  
Precipitation 0.00 in - - ()
Sea Level Pressure  
Sea Level Pressure 29.74 in    
Wind  
Wind Speed 3 mph (SE)    
Max Wind Speed 14 mph    
Max Gust Speed 21 mph    
Visibility 8 miles    
Events      
Averages and records for this station are not official NWS values.
T = Trace of Precipitation, MM = Missing Value Source: NWS Daily Summary

Daily Weather History Graph

Daily Weather History Graph

Search for Another Location

Airport or City:

Astronomy

Aug. 21, 2019 Rise Set
Actual Time 6:36 AM AKDT 9:40 PM AKDT
Civil Twilight 5:48 AM AKDT 10:27 PM AKDT
Nautical Twilight 4:41 AM AKDT 11:33 PM AKDT
Astronomical Twilight 2:36 AM AKDT 1:25 AM AKDT
Moon 11:34 PM AKDT (8/21) 1:45 PM AKDT (8/21)
Length of Visible Light 16h 39m
Length of Day
15h 04m
Waning Gibbous, 68% of the Moon is Illuminated
Aug 21
Waning Gibbous
Aug 23
Last Quarter
Aug 30
New
Sep 5
First Quarter
Sep 13
Full

Hourly Weather History & Observations

Time (AKDT) Temp. Windchill Dew Point Humidity Pressure Visibility Wind Dir Wind Speed Gust Speed Precip Events Conditions
12:53 AM 45.0 °F - 42.1 °F 90% 29.77 in 10.0 mi Calm Calm - N/A   Clear
1:53 AM 44.1 °F - 42.1 °F 93% 29.77 in 10.0 mi Calm Calm - N/A   Clear
2:13 AM 45.0 °F 43.5 °F 43.0 °F 93% 29.77 in 10.0 mi NE 3.5 mph - N/A   Mostly Cloudy
2:49 AM 44.6 °F - 42.8 °F 93% 29.77 in 10.0 mi Calm Calm - N/A   Scattered Clouds
2:53 AM 43.0 °F - 41.0 °F 93% 29.77 in 10.0 mi Calm Calm - N/A   Partly Cloudy
3:13 AM 44.1 °F - 43.0 °F 96% 29.77 in 10.0 mi Calm Calm - N/A   Mostly Cloudy
3:53 AM 44.1 °F - 42.1 °F 93% 29.77 in 10.0 mi Calm Calm - N/A   Overcast
4:53 AM 43.0 °F - 41.0 °F 93% 29.76 in 9.0 mi Calm Calm - N/A   Overcast
5:48 AM 46.4 °F 44.3 °F 44.6 °F 93% 29.75 in 10.0 mi ENE 4.6 mph - N/A   Overcast
5:53 AM 46.0 °F 44.8 °F 45.0 °F 96% 29.75 in 10.0 mi NE 3.5 mph - N/A   Overcast
6:53 AM 48.0 °F - 46.9 °F 96% 29.75 in 9.0 mi NE 3.5 mph - N/A   Overcast
7:53 AM 48.0 °F - 46.0 °F 93% 29.76 in 8.0 mi NE 4.6 mph - N/A   Overcast
8:53 AM 46.9 °F - 46.0 °F 97% 29.75 in 6.0 mi ENE 5.8 mph - N/A   Overcast
9:53 AM 50.0 °F - 46.0 °F 86% 29.75 in 6.0 mi ENE 3.5 mph - N/A   Mostly Cloudy
10:53 AM 51.1 °F - 46.9 °F 86% 29.75 in 3.0 mi ESE 5.8 mph - N/A   Overcast
11:25 AM 52.0 °F - 46.9 °F 83% 29.75 in 2.0 mi ESE 4.6 mph - N/A   Smoke
11:53 AM 53.1 °F - 46.9 °F 80% 29.75 in 2.0 mi East 4.6 mph - N/A   Smoke
12:53 PM 55.9 °F - 46.0 °F 69% 29.74 in 2.0 mi ESE 4.6 mph - N/A   Smoke
1:16 PM 57.0 °F - 46.0 °F 67% 29.74 in 5.0 mi SE 4.6 mph - N/A   Smoke
1:53 PM 59.0 °F - 45.0 °F 60% 29.73 in 5.0 mi East 3.5 mph - N/A   Smoke
2:53 PM 59.0 °F - 46.9 °F 64% 29.72 in 5.0 mi SSW 4.6 mph - N/A   Smoke
3:53 PM 60.1 °F - 46.9 °F 62% 29.72 in 4.0 mi West 11.5 mph - N/A   Smoke
4:50 PM 57.2 °F - 46.4 °F 67% 29.71 in 6.0 mi West 12.7 mph - N/A   Smoke
4:53 PM 57.2 °F - 46.4 °F 67% 29.71 in 6.0 mi WSW 12.7 mph - N/A   Smoke
5:10 PM 55.9 °F - 48.9 °F 77% 29.71 in 8.0 mi WSW 13.8 mph 20.7 mph N/A   Partly Cloudy
5:53 PM 57.0 °F - 48.9 °F 74% 29.70 in 8.0 mi WSW 12.7 mph - N/A   Partly Cloudy
6:53 PM 55.0 °F - 48.0 °F 77% 29.70 in 10.0 mi WSW 11.5 mph - N/A   Partly Cloudy
7:53 PM 54.0 °F - 48.9 °F 83% 29.70 in 10.0 mi WSW 11.5 mph - N/A   Partly Cloudy
8:53 PM 53.1 °F - 48.0 °F 83% 29.70 in 10.0 mi SW 6.9 mph - N/A   Clear
9:53 PM 50.0 °F - 46.9 °F 89% 29.70 in 10.0 mi WSW 3.5 mph - N/A   Clear
11:53 PM 46.9 °F - 45.0 °F 93% 29.68 in 8.0 mi Calm Calm - N/A   Clear